Retour au catalogue

SCOUT G-1 DEB

ActifPO
NORAD 21691·DEBRIS·🇺🇸 United States

Lancé Jun 29, 1991 depuis Vandenberg Space Force Base

Loading…

Prochains Passages (prochaines 24 heures)

TLE

FraisSource: Space-Track

Époque: Sep 14, 2026, 10:47 UTC

1 21691U 91045E   26257.44988723  .00000947  00000-0  21300-3 0  9994
2 21691  89.8047 252.3504 0013374 184.8332 327.5977 14.55800368853696

Suivez SCOUT G-1 DEB en temps réel avec AllMySat

Download on the App Store